• Em Portugal
  • Lista de países
  • Para 7 dias
  • Temperatura da água
  • Mapas de satélite
  • Mapa do tempo
  • Widgets de tempo
  • user-avatar
    Iniciar Sessão

    Previsão horária em Encamp

    Hoje, 23 Fevereiro, Sexta-feira

    Tempo Temperatura Precipitação Vento Pressão Humidade
    00:00 -10°C° 0 mm 2 m/s 613 mmHg 77%
    01:00 -10°C° 0 mm 2 m/s 613 mmHg 76%
    02:00 -12°C° 0 mm 2 m/s 612 mmHg 76%
    03:00 -12°C° 0 mm 2 m/s 612 mmHg 76%
    04:00 -12°C° 0 mm 2 m/s 612 mmHg 75%
    05:00 -12°C° 0 mm 2 m/s 612 mmHg 75%
    06:00 -12°C° 0 mm 2 m/s 612 mmHg 74%
    07:00 -9°C° 0 mm 2 m/s 612 mmHg 69%
    08:00 -8°C° 0 mm 2 m/s 613 mmHg 63%
    09:00 -6°C° 0 mm 2 m/s 614 mmHg 58%
    10:00 -5°C° 0 mm 2 m/s 614 mmHg 56%
    11:00 -1°C° 0 mm 1 m/s 615 mmHg 53%
    12:00 0°C° 0 mm 1 m/s 615 mmHg 50%
    13:00 0°C° 0 mm 1 m/s 615 mmHg 52%
    14:00 0°C° 0 mm 1 m/s 615 mmHg 54%
    15:00 0°C° 0 mm 1 m/s 614 mmHg 55%
    16:00 -2°C° 0 mm 1 m/s 614 mmHg 64%
    17:00 -4°C° 0 mm 1 m/s 613 mmHg 72%
    18:00 -7°C° 0 mm 0 m/s 613 mmHg 80%
    19:00 -7°C° 0 mm 0 m/s 613 mmHg 80%
    20:00 -7°C° 0 mm 1 m/s 613 mmHg 81%
    21:00 -8°C° 0 mm 1 m/s 613 mmHg 81%
    22:00 -8°C° 0 mm 1 m/s 613 mmHg 80%
    23:00 -8°C° 0 mm 1 m/s 613 mmHg 79%

    Amanhã, 24 Fevereiro, Sábado

    Tempo Temperatura Precipitação Vento Pressão Humidade
    00:00 -8°C° 0 mm 1 m/s 613 mmHg 78%
    01:00 -8°C° 0 mm 1 m/s 613 mmHg 76%
    02:00 -9°C° 0 mm 1 m/s 613 mmHg 75%
    03:00 -9°C° 0 mm 1 m/s 612 mmHg 73%
    04:00 -9°C° 0 mm 1 m/s 612 mmHg 71%
    05:00 -9°C° 0 mm 1 m/s 612 mmHg 70%
    06:00 -9°C° 0 mm 1 m/s 612 mmHg 68%
    07:00 -6°C° 0 mm 1 m/s 613 mmHg 62%
    08:00 -4°C° 0 mm 0 m/s 615 mmHg 56%
    09:00 -2°C° 0 mm 0 m/s 616 mmHg 51%
    10:00 0°C° 0 mm 1 m/s 616 mmHg 49%
    11:00 +1°C° 0 mm 1 m/s 616 mmHg 48%
    12:00 +2°C° 0 mm 1 m/s 617 mmHg 47%
    13:00 +2°C° 0 mm 1 m/s 616 mmHg 49%
    14:00 +2°C° 0 mm 1 m/s 616 mmHg 51%
    15:00 +2°C° 0 mm 1 m/s 616 mmHg 53%
    16:00 0°C° 0 mm 1 m/s 616 mmHg 62%
    17:00 -2°C° 0 mm 1 m/s 615 mmHg 70%
    18:00 -4°C° 0 mm 0 m/s 615 mmHg 78%
    19:00 -5°C° 0 mm 0 m/s 615 mmHg 79%
    20:00 -4°C° 0 mm 1 m/s 615 mmHg 81%
    21:00 -4°C° 0 mm 1 m/s 615 mmHg 82%
    22:00 -4°C° 0 mm 1 m/s 615 mmHg 82%
    23:00 -6°C° 0 mm 1 m/s 615 mmHg 82%

    Depois de amanhã, 25 Fevereiro, Domingo

    Tempo Temperatura Precipitação Vento Pressão Humidade
    00:00 -6°C° 0 mm 1 m/s 615 mmHg 82%
    01:00 -6°C° 0 mm 1 m/s 615 mmHg 80%
    02:00 -6°C° 0 mm 1 m/s 615 mmHg 78%
    03:00 -6°C° 0 mm 1 m/s 615 mmHg 76%
    04:00 -6°C° 0 mm 1 m/s 615 mmHg 74%
    05:00 -7°C° 0 mm 2 m/s 615 mmHg 71%
    06:00 -7°C° 0 mm 2 m/s 615 mmHg 69%
    07:00 -3°C° 0 mm 1 m/s 616 mmHg 65%
    08:00 -1°C° 0 mm 1 m/s 617 mmHg 62%
    09:00 0°C° 0 mm 1 m/s 618 mmHg 58%
    10:00 +2°C° 0 mm 1 m/s 618 mmHg 57%
    11:00 +3°C° 0 mm 1 m/s 619 mmHg 57%
    12:00 +4°C° 0 mm 1 m/s 619 mmHg 56%
    13:00 +3°C° 0 mm 2 m/s 619 mmHg 58%
    14:00 +3°C° 0 mm 2 m/s 618 mmHg 60%
    15:00 +3°C° 0 mm 2 m/s 618 mmHg 62%
    16:00 +1°C° 0 mm 2 m/s 617 mmHg 69%
    17:00 -2°C° 0 mm 2 m/s 617 mmHg 76%
    18:00 -2°C° 0 mm 1 m/s 616 mmHg 84%
    19:00 -2°C° 0 mm 1 m/s 616 mmHg 85%
    20:00 -5°C° 0 mm 2 m/s 616 mmHg 86%
    21:00 -5°C° 0 mm 2 m/s 616 mmHg 87%
    22:00 -5°C° 0 mm 2 m/s 616 mmHg 85%
    23:00 -6°C° 0 mm 2 m/s 616 mmHg 82%

    26 Fevereiro, Segunda-feira

    Tempo Temperatura Precipitação Vento Pressão Humidade
    00:00 -6°C° 0 mm 2 m/s 616 mmHg 80%
    01:00 -6°C° 0 mm 2 m/s 616 mmHg 76%
    02:00 -7°C° 0 mm 2 m/s 615 mmHg 73%
    03:00 -7°C° 0 mm 2 m/s 615 mmHg 70%
    04:00 -7°C° 0 mm 2 m/s 615 mmHg 68%
    05:00 -7°C° 0 mm 2 m/s 615 mmHg 67%
    06:00 -7°C° 0 mm 2 m/s 615 mmHg 65%
    07:00 -3°C° 0 mm 1 m/s 616 mmHg 61%
    08:00 -1°C° 0 mm 1 m/s 617 mmHg 56%
    09:00 +1°C° 0 mm 1 m/s 617 mmHg 52%
    10:00 +2°C° 0 mm 1 m/s 618 mmHg 51%
    11:00 +3°C° 0 mm 1 m/s 618 mmHg 50%
    12:00 +4°C° 0 mm 1 m/s 618 mmHg 49%
    13:00 +4°C° 0 mm 1 m/s 617 mmHg 52%
    14:00 +3°C° 0 mm 1 m/s 617 mmHg 56%
    15:00 +2°C° 0 mm 2 m/s 616 mmHg 59%
    16:00 +1°C° 0 mm 1 m/s 615 mmHg 68%
    17:00 -1°C° 0 mm 1 m/s 615 mmHg 78%
    18:00 -3°C° 0 mm 1 m/s 614 mmHg 87%
    19:00 -3°C° 0 mm 1 m/s 614 mmHg 88%
    20:00 -3°C° 0 mm 1 m/s 614 mmHg 88%
    21:00 -3°C° 0 mm 1 m/s 614 mmHg 88%
    22:00 -3°C° 0,1 mm 1 m/s 614 mmHg 88%
    23:00 -3°C° 0,1 mm 1 m/s 614 mmHg 88%

    27 Fevereiro, Terça-feira

    Tempo Temperatura Precipitação Vento Pressão Humidade
    00:00 -4°C° 0,1 mm 1 m/s 614 mmHg 87%
    01:00 -4°C° 0,1 mm 1 m/s 614 mmHg 87%
    02:00 -4°C° 0,1 mm 1 m/s 613 mmHg 87%
    03:00 -4°C° 0,1 mm 1 m/s 613 mmHg 87%
    04:00 -4°C° 0,1 mm 1 m/s 613 mmHg 87%
    05:00 -6°C° 0,1 mm 1 m/s 613 mmHg 87%
    06:00 -6°C° 0,1 mm 0 m/s 613 mmHg 86%
    07:00 -4°C° 0,1 mm 1 m/s 614 mmHg 82%
    08:00 -3°C° 0,1 mm 1 m/s 614 mmHg 78%
    09:00 -3°C° 0,1 mm 1 m/s 615 mmHg 74%
    10:00 -2°C° 0,2 mm 1 m/s 615 mmHg 72%
    11:00 -3°C° 0,2 mm 2 m/s 615 mmHg 70%
    12:00 -3°C° 0,2 mm 2 m/s 616 mmHg 68%
    13:00 -3°C° 0,3 mm 2 m/s 615 mmHg 67%
    14:00 -3°C° 0,3 mm 2 m/s 615 mmHg 67%
    15:00 -3°C° 0,3 mm 2 m/s 615 mmHg 67%
    16:00 -4°C° 0,2 mm 2 m/s 615 mmHg 70%
    17:00 -5°C° 0,2 mm 2 m/s 615 mmHg 74%
    18:00 -4°C° 0,2 mm 1 m/s 615 mmHg 77%
    19:00 -6°C° 0,1 mm 1 m/s 615 mmHg 77%
    20:00 -6°C° 0,1 mm 1 m/s 615 mmHg 78%
    21:00 -6°C° 0,1 mm 1 m/s 615 mmHg 79%
    22:00 -6°C° 0,1 mm 1 m/s 615 mmHg 79%
    23:00 -6°C° 0,1 mm 1 m/s 615 mmHg 80%

    28 Fevereiro, Quarta-feira

    Tempo Temperatura Precipitação Vento Pressão Humidade
    00:00 -6°C° 0,1 mm 1 m/s 615 mmHg 80%
    01:00 -7°C° 0 mm 1 m/s 615 mmHg 81%
    02:00 -7°C° 0 mm 1 m/s 615 mmHg 81%
    03:00 -7°C° 0 mm 1 m/s 615 mmHg 82%
    04:00 -7°C° 0 mm 1 m/s 615 mmHg 82%
    05:00 -7°C° 0 mm 1 m/s 615 mmHg 81%
    06:00 -8°C° 0 mm 0 m/s 614 mmHg 81%
    07:00 -7°C° 0 mm 1 m/s 615 mmHg 77%
    08:00 -4°C° 0 mm 1 m/s 615 mmHg 72%
    09:00 -5°C° 0 mm 2 m/s 616 mmHg 68%
    10:00 -5°C° 0,2 mm 2 m/s 616 mmHg 68%
    11:00 -4°C° 0,2 mm 2 m/s 616 mmHg 69%
    12:00 -4°C° 0,2 mm 3 m/s 616 mmHg 69%
    13:00 -4°C° 0,3 mm 3 m/s 615 mmHg 71%
    14:00 -4°C° 0,3 mm 3 m/s 614 mmHg 73%
    15:00 -4°C° 0,3 mm 3 m/s 614 mmHg 75%
    16:00 -4°C° 0,2 mm 3 m/s 613 mmHg 79%
    17:00 -5°C° 0,2 mm 3 m/s 612 mmHg 82%
    18:00 -6°C° 0,2 mm 3 m/s 612 mmHg 86%
    19:00 -5°C° 0,2 mm 3 m/s 612 mmHg 87%
    20:00 -5°C° 0,2 mm 3 m/s 611 mmHg 87%
    21:00 -5°C° 0,2 mm 3 m/s 611 mmHg 88%
    22:00 -5°C° 0,5 mm 3 m/s 611 mmHg 88%
    23:00 -4°C° 0,5 mm 4 m/s 610 mmHg 89%
    Mostrar mais